Cloud_Cover
98 100 52 81 89 60 82 93 81 36 91 99 44 99 100 100 100 100 79 100 100 31 0 20 0 0 9 3 5 3 0 0 0 3 0 3 25 2 3 2 93 50 5 17 32 71 14 1 44
69 100 100 97 68 56 84 52 100 77 87 48 84 44 100 97 83 100 100 100 70 1 0 14 0 0 0 5 5 1 0 4 7 3 97 75 4 10 0 97 100 98 100 92 93 70 37 6 7
57 70 93 100 100 54 93 96 100 100 98 97 64 71 100 100 100 100 100 100 0 3 0 0 0 0 10 6 5 4 4 1 0 3 18 35 2 0 21 95 87 29 16 4 5 5 2 7 91
33 48 88 90 100 99 100 96 100 86 100 100 64 87 100 81 100 100 100 48 0 0 0 0 0 0 4 4 9 0 0 0 5 5 4 3 0 0 5 4 0 0 4 5 5 5 5 10 72
60 67 56 92 98 86 100 100 100 98 100 100 8 50 100 100 100 83 58 0 0 0 7 3 0 7 17 34 6 8 4 0 0 2 0 0 0 0 0 2 6 4 2 5 0 0 25 85 84
74 94 65 98 100 84 89 96 100 100 100 100 99 83 97 96 91 79 6 0 0 0 2 18 0 1 12 5 56 6 0 0 4 4 0 0 0 8 1 0 0 2 0 0 0 0 13 63 82
88 18 100 70 90 100 100 94 100 96 100 100 84 71 80 48 99 89 5 1 0 0 14 4 20 0 5 5 5 13 6 3 0 0 2 0 0 0 0 5 6 6 0 2 4 5 5 5 4
55 7 27 67 100 86 99 100 100 100 100 100 29 28 93 83 100 96 17 4 20 0 26 2 43 0 0 0 2 3 2 8 3 5 5 2 1 5 5 5 4 0 0 0 3 3 5 5 5
98 54 41 60 47 100 93 85 79 72 100 98 5 9 100 76 100 73 26 15 44 1 21 0 24 0 14 8 92 80 0 8 3 0 0 0 0 4 5 2 1 3 2 0 6 4 3 0 4
82 39 22 97 100 88 100 83 51 95 100 30 5 98 44 83 76 72 1 0 0 0 12 0 0 6 1 0 61 44 22 1 1 0 0 0 0 0 4 1 0 0 0 1 2 0 0 5 1
45 81 25 100 100 100 100 96 41 36 44 13 92 79 90 61 94 14 0 0 0 0 4 0 0 27 1 6 18 12 8 0 1 0 0 0 0 0 0 0 0 0 0 0 0 4 1 5 1
36 64 55 94 68 73 100 100 100 91 100 100 100 100 53 23 3 2 0 0 0 0 5 9 0 5 5 2 0 0 0 0 0 0 0 0 0 0 0 0 2 0 0 0 0 2 2 0 0
5 32 34 100 57 79 62 96 99 73 69 87 59 23 5 2 0 0 0 0 0 0 2 8 0 0 4 10 0 0 0 0 0 0 0 0 0 0 0 0 0 9 0 0 0 0 0 0 0
5 57 27 100 94 64 100 99 83 44 84 99 3 0 0 0 0 0 0 0 0 0 0 0 0 0 0 0 0 0 0 0 0 0 0 0 0 0 0 0 0 0 0 0 0 0 0 0 0
8 13 93 100 78 71 67 41 5 2 0 0 0 0 0 0 0 0 0 0 0 0 0 0 0 0 0 0 0 0 0 0 0 0 0 0 0 0 0 0 0 0 0 0 0 0 0 5 5
5 3 5 61 63 74 13 6 5 4 0 0 3 1 0 0 0 0 0 0 0 0 0 0 0 5 0 0 0 0 0 0 0 0 0 0 0 0 30 57 0 0 0 0 0 0 0 5 42
4 0 2 49 5 8 11 21 0 1 0 3 4 1 0 0 0 0 0 0 0 0 0 0 0 5 2 0 0 0 0 0 0 0 0 0 0 0 2 7 0 0 0 20 0 0 0 0 0
0 0 0 26 5 2 5 82 0 1 4 5 0 0 0 0 0 0 0 0 0 0 0 0 0 5 5 0 0 0 0 0 0 0 0 0 0 0 0 3 0 0 0 0 0 0 31 0 0
0 0 0 41 11 5 26 68 29 5 5 2 0 0 0 0 0 0 0 0 0 0 0 0 0 0 0 0 0 0 0 0 0 0 0 0 0 0 0 0 0 1 0 2 0 0 1 0 0
0 0 0 20 51 5 84 8 5 5 23 4 2 0 0 0 0 0 0 0 0 0 0 0 0 0 0 0 0 0 0 0 0 0 0 0 0 0 0 0 0 7 0 0 0 0 0 3 22
0 0 0 4 96 5 5 5 5 5 3 0 0 1 0 5 0 0 1 0 0 0 0 0 0 0 0 0 0 0 4 0 0 0 0 0 0 0 0 0 0 9 0 0 0 0 0 3 0
0 0 0 1 5 31 34 0 0 2 0 0 0 0 2 5 5 0 0 0 0 0 0 0 0 0 0 0 0 0 4 3 0 0 0 2 0 0 0 0 0 0 0 2 0 0 0 0 0
0 0 0 0 2 5 5 8 0 0 0 0 0 0 0 5 4 4 0 0 0 0 0 0 0 0 0 0 0 0 0 0 0 0 0 4 0 0 0 0 0 0 0 1 0 1 0 0 0
0 0 0 0 0 3 0 2 0 0 4 18 0 0 4 1 5 5 2 0 0 0 0 0 0 0 0 0 0 0 0 0 0 0 0 0 0 0 0 0 0 0 0 0 0 0 0 0 0
0 0 0 0 0 1 0 0 0 0 5 4 4 2 2 5 9 5 3 0 0 0 0 0 1 0 0 0 0 0 0 0 0 0 0 0 0 0 0 0 0 0 0 0 0 0 0 0 0
0 0 0 0 0 0 0 0 0 0 0 0 0 5 4 0 5 5 5 5 0 0 0 0 0 0 0 0 0 0 0 0 0 0 0 0 0 0 0 0 0 0 0 0 0 0 0 4 5
0 0 0 0 0 0 0 0 0 0 0 0 0 1 5 13 5 3 5 5 1 0 0 0 0 0 0 0 0 0 0 0 0 0 0 0 0 0 0 0 0 0 0 0 0 0 0 16 5
0 0 0 0 0 0 0 0 0 0 0 0 0 1 5 78 86 4 5 5 5 0 0 0 0 0 0 0 0 0 0 0 0 0 0 0 0 0 0 0 0 0 0 0 0 0 0 0 0
0 0 0 0 0 0 0 0 0 0 0 0 0 1 5 9 100 5 5 5 17 11 0 0 0 0 0 0 0 0 0 0 0 0 0 0 0 0 0 0 0 0 0 0 0 0 0 0 0
0 5 1 34 0 0 0 0 0 0 0 0 0 4 5 36 100 22 5 5 5 19 0 0 0 0 0 0 0 0 0 0 0 0 0 0 0 0 0 0 0 0 0 0 0 0 0 0 0